STARLINK-3873, 52467

Orbit data source: Space-Track

STARLINK-3873, 52467 is a payload satellite owned by SpaceX/Seattle (US) in LEO that was launched on Fri, 06 May 2022 UTC via an FALCON 9 launch vehicle from the Air Force Eastern Test Range (AFETR). Payload-class satellites include a variety of spacecraft equipped with specific instruments for various scientific and technological missions. These include communications satellites like Starlink; space stations such as the ISS; scientific satellites like the Hubble; Earth observation satellites from companies like Planet Labs, Umbra, and HawkEye 360; GPS; miniature CubeSats for education and research; and military/defense satellites.

Loading next visibility...
Identifier
52467, 2022-049S
Orbit
LEO
Country
Flag of USUS
Related business
Manufacturer
SpaceX/Seattle
Mission
Operational Commercial Communications
Bus & Motor
STARLINK, Unknown motor
Mass
297 kg wet, ~220 kg dry
Launch date (UTC)
2022-05-06 (4 years ago)
Launch vehicle
FALCON 9
Launch site
Air Force Eastern Test Range (AFETR)
Object type
Payload
Rocket body
Debris
Shape & HBR
Box + 1 Pan, 10.1 m
Radar Cross Section
13.562 m², Large (>1 m²)

Expand to show TLE details & history
Last TLE update: 15 hours ago

TLE from 15 hours ago
0 STARLINK-3873
1 52467U 22049S   26235.93154878  .00001245  00000-0  46581-4 0  9994
2 52467  53.1610  22.3461 0001035  55.0324 305.0777 15.35410216237579
Epoch: 2026-08-23T22:21Z
TLE epoch observation values (Epoch: 2026-08-23T22:21:25.814Z)
Latitude
0.00004°
Longitude
74.76805°
Altitude
460.197 km
Speed
7.638 km/s
True Right ascension
01h 29m 23s
True Declination
0° 00' 00"
Sunlit
Object was in full shadow at epoch
Visualization orbit readout
Latitude
Unknown
Longitude
Unknown
Altitude
Unknown
Speed
Unknown
Apparent Right ascension
Unknown
Apparent Declination
Unknown
Sunlit
N/A
Visualization observer readout
Local Sidereal Time
04:04:58
Azimuth
Unknown
Elevation
Unknown
Doppler factor
Unknown
Orbital elements
Apogee altitude
460.667 km
Perigee altitude
459.251 km
Semi-major axis
6,838.096 km
Eccentricity
0.0001
Inclination
53.161°
RAAN
22.3461°
Arg. of periapsis
55.0324°
True anomaly
305.06799°
Mean anomaly
305.0777°
Eccentric anomaly
305.07285°
Mean motion
3.83831 °/min
Orbital period
93.79 mins
BSTAR
0.000046581
Loading maneuver chart data...
Computing Atmospheric mass density...
Loading historical data...
Loading historical data...
Loading historical data...
Loading historical data...
Loading historical data...
Loading historical data...
Loading historical data...

Documentation

Showing up to 5 results
|